sat.trackr.live / text

‹ back to catalog

UNKNOWN

NORAD 81969

UNKNOWN UNKNOWN UNKNOWN

§ Identity

Operator
Country
Launch date
Launch site
Launch vehicle
Mass (kg)
RCS (m²)

External: N2YO · Heavens-Above

§ Orbital elements

Epoch: 2026-05-23T06:09:17.680032Z

Period
95.07 min
Inclination
86.6825°
Eccentricity
0.0002220
Mean motion
15.14713271 rev/d
Perigee alt
520.3 km
Apogee alt
523.4 km
Semi-major
6,900.0 km
B*
4.3082e-4
RAAN
83.0700°
Arg perigee
352.9037°
Mean anomaly
7.2172°
Rev number
46,459

§ Raw data

UNKNOWN1 81969U          26143.25645463  .00008008  00000+0  43082-3 0  99992 81969  86.6825  83.0700 0002220 352.9037   7.2172 15.14713271464592

JSON: /api/v1/satellites/81969 · /tle

For live sub-satellite position, see the globe view (requires WebGL).

§ Visibility from observer

Set your observer location to see the next 7 days of passes ≥ 10°. The values pass through the URL so the page stays shareable.

No JS? Fill the form by hand. The geolocation button needs JavaScript.